Total_Precipitation_Accumulation
1.38 1.57 1.87 2.25 2.49 2.77 2.99 3.21 3.34 3.34 3.39 3.60 3.60 3.43 3.25 3.08 2.74 2.50 2.47 2.39 2.27 2.25 2.16 1.99 2.05 2.17 2.07 1.96 2.03 2.11 2.10 2.00 1.86 1.79 1.61 1.49 1.37 1.23 1.00 0.82 0.79 0.81 0.87
1.14 1.30 1.56 1.87 2.15 2.43 2.79 3.03 3.24 3.43 3.30 3.16 3.27 3.32 3.31 3.18 2.99 2.78 2.69 2.52 2.35 2.27 2.26 2.25 2.17 2.26 2.25 2.16 2.11 2.18 2.27 2.18 2.14 2.09 2.00 1.79 1.64 1.36 1.11 0.95 0.86 0.84 0.89
0.96 1.10 1.31 1.55 1.84 2.12 2.45 2.74 2.97 3.25 3.40 3.32 3.41 3.44 3.41 3.27 3.03 2.78 2.66 2.56 2.47 2.37 2.27 2.29 2.32 2.31 2.34 2.27 2.20 2.19 2.25 2.28 2.20 2.13 2.24 1.97 1.64 1.39 1.23 1.05 0.95 0.91 0.92
0.86 0.98 1.13 1.34 1.58 1.90 2.15 2.38 2.72 3.00 3.27 3.41 3.33 3.22 3.17 2.96 2.76 2.72 2.82 2.75 2.55 2.41 2.35 2.29 2.27 2.32 2.31 2.26 2.31 2.35 2.25 2.27 2.29 2.23 2.06 1.86 1.60 1.51 1.39 1.23 1.13 1.03 0.98
0.82 0.89 1.02 1.18 1.39 1.69 1.95 2.12 2.37 2.67 2.88 2.94 2.97 3.01 2.98 2.90 2.82 2.85 2.84 2.82 2.60 2.38 2.30 2.29 2.25 2.22 2.25 2.26 2.31 2.36 2.40 2.32 2.25 2.20 2.13 2.04 1.80 1.61 1.57 1.43 1.33 1.30 1.17
0.85 0.92 1.02 1.15 1.23 1.40 1.68 1.93 2.02 2.24 2.46 2.55 2.63 2.73 2.66 2.67 2.68 2.69 2.76 2.81 2.66 2.40 2.26 2.23 2.19 2.16 2.16 2.16 2.25 2.33 2.41 2.39 2.27 2.16 2.02 1.98 1.89 1.73 1.70 1.55 1.37 1.39 1.29
1.01 1.07 1.08 1.20 1.27 1.36 1.43 1.67 1.83 1.92 2.10 2.30 2.42 2.43 2.49 2.50 2.51 2.46 2.52 2.71 2.76 2.49 2.27 2.21 2.21 2.18 2.12 2.14 2.28 2.38 2.40 2.41 2.34 2.26 2.15 2.03 1.88 1.79 1.83 1.82 1.61 1.45 1.32
1.17 1.22 1.22 1.36 1.43 1.46 1.48 1.57 1.67 1.65 1.74 1.95 2.15 2.21 2.31 2.30 2.24 2.18 2.17 2.25 2.43 2.50 2.43 2.36 2.31 2.29 2.24 2.19 2.21 2.24 2.27 2.31 2.28 2.20 2.12 2.05 1.93 1.92 1.92 1.94 2.03 1.91 1.59
1.24 1.33 1.38 1.42 1.41 1.38 1.47 1.55 1.63 1.60 1.53 1.58 1.71 1.86 1.98 2.01 1.95 1.92 1.89 1.94 2.03 2.18 2.34 2.37 2.32 2.25 2.22 2.19 2.19 2.16 2.08 2.13 2.14 2.10 2.04 1.95 1.82 1.84 1.87 1.87 1.99 2.18 1.99
1.14 1.27 1.28 1.27 1.31 1.34 1.39 1.51 1.57 1.62 1.54 1.50 1.53 1.61 1.66 1.70 1.69 1.69 1.69 1.67 1.72 1.76 1.92 2.10 2.17 2.16 2.13 2.10 2.12 2.10 2.00 2.02 1.94 1.88 1.91 1.87 1.76 1.69 1.72 1.81 1.87 1.97 2.05
0.97 1.05 1.07 1.10 1.15 1.20 1.31 1.46 1.55 1.56 1.47 1.50 1.51 1.47 1.49 1.58 1.57 1.50 1.51 1.55 1.55 1.53 1.61 1.74 1.86 1.92 1.96 1.98 1.99 1.95 1.90 1.90 1.86 1.80 1.76 1.71 1.69 1.72 1.69 1.70 1.78 1.87 1.94
0.90 0.90 0.89 0.88 0.88 0.94 1.05 1.16 1.27 1.32 1.32 1.36 1.45 1.37 1.34 1.47 1.52 1.44 1.38 1.41 1.43 1.33 1.34 1.42 1.50 1.58 1.63 1.66 1.71 1.73 1.72 1.72 1.73 1.70 1.69 1.65 1.62 1.62 1.62 1.68 1.71 1.74 1.79
0.73 0.70 0.71 0.74 0.73 0.76 0.85 0.96 1.05 1.14 1.23 1.27 1.31 1.27 1.23 1.30 1.35 1.39 1.37 1.33 1.38 1.33 1.25 1.22 1.26 1.31 1.35 1.40 1.42 1.45 1.49 1.50 1.50 1.55 1.58 1.57 1.62 1.67 1.62 1.60 1.58 1.54 1.55
0.58 0.54 0.53 0.55 0.57 0.62 0.73 0.82 0.87 0.94 1.09 1.16 1.16 1.13 1.13 1.13 1.14 1.17 1.21 1.19 1.19 1.24 1.27 1.17 1.09 1.12 1.17 1.24 1.30 1.32 1.35 1.38 1.42 1.45 1.48 1.50 1.53 1.54 1.55 1.60 1.58 1.53 1.53
0.44 0.41 0.42 0.42 0.45 0.46 0.53 0.65 0.77 0.84 0.98 1.11 1.14 1.12 1.08 1.03 1.02 1.04 1.01 1.02 1.04 1.10 1.17 1.16 1.09 1.04 1.07 1.13 1.19 1.23 1.28 1.29 1.33 1.36 1.38 1.43 1.55 1.61 1.58 1.57 1.56 1.61 1.71
0.40 0.36 0.33 0.33 0.36 0.38 0.41 0.51 0.66 0.76 0.86 0.98 1.05 1.07 1.06 1.02 0.99 0.97 0.96 0.93 0.95 1.02 1.10 1.14 1.15 1.13 1.15 1.37 1.36 1.28 1.27 1.29 1.30 1.30 1.27 1.28 1.36 1.39 1.46 1.49 1.49 1.60 1.76
0.39 0.36 0.34 0.32 0.32 0.33 0.40 0.50 0.61 0.67 0.72 0.80 0.88 0.94 0.95 0.97 0.97 0.96 0.99 1.03 1.05 1.07 1.15 1.21 1.24 1.24 1.31 1.45 1.37 1.36 1.24 1.22 1.23 1.22 1.19 1.16 1.15 1.20 1.10 1.21 1.29 1.33 1.48
0.34 0.34 0.35 0.33 0.31 0.32 0.37 0.48 0.61 0.70 0.76 0.82 0.85 0.85 0.90 0.95 0.99 1.05 1.13 1.21 1.27 1.27 1.32 1.39 1.40 1.40 1.41 1.43 1.36 1.38 1.19 1.10 1.06 1.01 0.96 0.94 0.92 0.95 1.03 1.09 1.17 1.10 1.07
0.35 0.36 0.38 0.38 0.37 0.38 0.39 0.46 0.60 0.70 0.78 0.85 0.91 0.92 0.99 1.07 1.12 1.23 1.29 1.32 1.40 1.39 1.34 1.33 1.32 1.30 1.27 1.28 1.23 1.22 1.08 1.01 0.94 0.85 0.80 0.81 0.79 0.94 1.12 1.14 1.18 1.02 0.91
0.38 0.39 0.39 0.37 0.40 0.45 0.47 0.55 0.67 0.78 0.87 0.95 1.05 1.06 1.08 1.15 1.18 1.22 1.20 1.17 1.17 1.15 1.10 1.06 1.02 1.00 0.97 1.01 1.01 1.05 0.99 0.95 0.85 0.78 0.75 0.83 0.83 0.99 1.14 1.09 1.12 1.07 0.90
0.47 0.48 0.47 0.50 0.56 0.61 0.66 0.75 0.86 0.98 1.05 1.06 1.12 1.10 1.06 1.07 1.06 1.01 0.96 0.89 0.85 0.81 0.78 0.77 0.74 0.71 0.71 0.75 0.80 0.90 0.94 1.00 0.95 0.84 0.76 0.74 0.91 1.02 1.11 1.09 1.01 1.06 1.08
0.45 0.50 0.56 0.59 0.61 0.70 0.80 0.89 1.00 1.06 1.01 0.97 0.95 0.89 0.80 0.77 0.73 0.72 0.73 0.72 0.69 0.71 0.69 0.66 0.65 0.60 0.57 0.62 0.68 0.77 0.90 0.99 1.00 0.91 0.78 0.78 0.96 1.01 1.02 1.01 1.04 1.15 1.16
0.35 0.39 0.47 0.53 0.53 0.59 0.64 0.72 0.74 0.72 0.70 0.69 0.69 0.68 0.64 0.61 0.61 0.62 0.65 0.68 0.67 0.68 0.67 0.65 0.67 0.65 0.59 0.61 0.70 0.75 0.86 0.95 0.94 0.90 0.92 0.96 0.99 0.96 0.91 0.95 1.04 1.06 1.00
0.31 0.32 0.35 0.40 0.43 0.45 0.48 0.51 0.51 0.51 0.53 0.57 0.61 0.63 0.64 0.60 0.60 0.61 0.62 0.67 0.71 0.72 0.70 0.69 0.69 0.67 0.63 0.63 0.69 0.79 0.86 0.93 0.95 0.95 0.93 0.90 0.89 0.92 0.90 0.89 0.90 0.92 0.98
0.29 0.31 0.37 0.42 0.47 0.46 0.47 0.49 0.52 0.54 0.57 0.59 0.64 0.67 0.69 0.66 0.64 0.64 0.66 0.70 0.75 0.83 0.92 0.90 0.84 0.85 0.81 0.75 0.90 1.01 1.02 1.04 1.07 1.11 1.01 0.89 0.85 0.88 0.87 0.85 0.85 0.89 0.99
0.30 0.31 0.34 0.41 0.47 0.47 0.48 0.50 0.54 0.60 0.63 0.62 0.63 0.67 0.70 0.71 0.70 0.65 0.65 0.70 0.73 0.77 0.81 0.84 0.87 0.84 0.86 0.89 0.95 0.99 1.02 1.09 1.17 1.23 1.08 0.90 0.84 0.85 0.85 0.86 0.88 0.90 0.97